,,PressureMeas_1m,,PRMeasQMR101_1,,RHStat155_1m_1,,SRMeasQMS101R_1m,,TAStat155_1m_1,,GenWind_1,,GenWind_1,
2017-08-02, 00:00:06,VALID,919.929,VALID,0.0,VALID,95.62,VALID,0.011,VALID,19.6,VALID,105.0,VALID,0.0,
2017-08-02, 00:01:06,VALID,919.931,VALID,0.0,VALID,96.139,VALID,0.015,VALID,19.65,VALID,105.0,VALID,0.0,
2017-08-02, 00:02:06,VALID,919.923,VALID,0.0,VALID,96.005,VALID,0.026,VALID,19.629,VALID,105.0,VALID,0.369,
2017-08-02, 00:03:06,VALID,919.928,VALID,0.0,VALID,95.905,VALID,0.016,VALID,19.537,VALID,111.0,VALID,0.535,
2017-08-02, 00:04:06,VALID,919.93,VALID,0.0,VALID,95.894,VALID,0.02,VALID,19.446,VALID,123.0,VALID,0.357,
2017-08-02, 00:05:06,VALID,919.922,VALID,0.0,VALID,96.42,VALID,0.026,VALID,19.428,VALID,140.0,VALID,0.471,
2017-08-02, 00:06:06,VALID,919.91,VALID,0.0,VALID,95.548,VALID,0.039,VALID,19.299,VALID,154.0,VALID,0.289,
2017-08-02, 00:07:06,VALID,919.906,VALID,0.0,VALID,95.091,VALID,0.032,VALID,19.226,VALID,155.0,VALID,0.0,
2017-08-02, 00:08:06,VALID,919.88,VALID,0.0,VALID,95.88,VALID,0.027,VALID,19.273,VALID,155.0,VALID,0.0,
2017-08-02, 00:09:06,VALID,919.873,VALID,0.0,VALID,96.988,VALID,0.032,VALID,19.417,VALID,155.0,VALID,0.0,
2017-08-02, 00:10:06,VALID,919.862,VALID,0.0,VALID,97.225,VALID,-0.006,VALID,19.477,VALID,149.0,VALID,0.0,
2017-08-02, 00:11:06,VALID,919.847,VALID,0.0,VALID,96.21,VALID,0.003,VALID,19.297,VALID,106.0,VALID,0.0,
2017-08-02, 00:12:06,VALID,919.85,VALID,0.0,VALID,94.756,VALID,-0.002,VALID,19.124,VALID,98.0,VALID,0.0,
2017-08-02, 00:13:06,VALID,919.84,VALID,0.0,VALID,95.614,VALID,-0.018,VALID,19.108,VALID,96.0,VALID,0.0,
2017-08-02, 00:14:06,VALID,919.83,VALID,0.0,VALID,96.398,VALID,-0.01,VALID,19.171,VALID,96.0,VALID,0.0,
2017-08-02, 00:15:06,VALID,919.82,VALID,0.0,VALID,97.141,VALID,-0.011,VALID,19.303,VALID,97.0,VALID,0.0,
2017-08-02, 00:16:06,VALID,919.794,VALID,0.0,VALID,97.042,VALID,-0.008,VALID,19.29,VALID,112.0,VALID,0.0,
2017-08-02, 00:17:06,VALID,919.775,VALID,0.0,VALID,96.584,VALID,-0.005,VALID,19.227,VALID,121.0,VALID,0.0,
2017-08-02, 00:18:06,VALID,919.742,VALID,0.0,VALID,96.821,VALID,0.006,VALID,19.247,VALID,124.0,VALID,0.0,
2017-08-02, 00:19:06,VALID,919.711,VALID,0.0,VALID,96.66,VALID,0.006,VALID,19.214,VALID,128.0,VALID,0.287,
2017-08-02, 00:20:06,VALID,919.692,VALID,0.0,VALID,96.496,VALID,-0.01,VALID,19.217,VALID,129.0,VALID,0.504,
2017-08-02, 00:21:06,VALID,919.692,VALID,0.0,VALID,96.58,VALID,-0.01,VALID,19.257,VALID,131.0,VALID,0.476,
2017-08-02, 00:22:06,VALID,919.668,VALID,0.0,VALID,96.556,VALID,0.003,VALID,19.292,VALID,135.0,VALID,0.539,
2017-08-02, 00:23:06,VALID,919.673,VALID,0.0,VALID,96.173,VALID,-0.018,VALID,19.253,VALID,134.0,VALID,0.612,
2017-08-02, 00:24:06,VALID,919.664,VALID,0.0,VALID,96.106,VALID,-0.011,VALID,19.236,VALID,126.0,VALID,0.719,
2017-08-02, 00:25:06,VALID,919.647,VALID,0.0,VALID,96.187,VALID,0.01,VALID,19.214,VALID,114.0,VALID,0.682,
2017-08-02, 00:26:06,VALID,919.626,VALID,0.0,VALID,95.811,VALID,0.009,VALID,19.171,VALID,120.0,VALID,0.849,
2017-08-02, 00:27:06,VALID,919.627,VALID,0.0,VALID,96.064,VALID,0.003,VALID,19.214,VALID,134.0,VALID,0.676,
2017-08-02, 00:28:06,VALID,919.615,VALID,0.0,VALID,96.462,VALID,0.023,VALID,19.283,VALID,124.0,VALID,0.802,
2017-08-02, 00:29:06,VALID,919.619,VALID,0.0,VALID,96.143,VALID,-0.001,VALID,19.272,VALID,116.0,VALID,0.602,
2017-08-02, 00:30:06,VALID,919.614,VALID,0.0,VALID,95.816,VALID,0.027,VALID,19.241,VALID,107.0,VALID,0.608,
2017-08-02, 00:31:06,VALID,919.585,VALID,0.0,VALID,95.774,VALID,0.012,VALID,19.23,VALID,102.0,VALID,0.733,
2017-08-02, 00:32:06,VALID,919.546,VALID,0.0,VALID,95.71,VALID,0.01,VALID,19.209,VALID,102.0,VALID,0.877,
2017-08-02, 00:33:06,VALID,919.483,VALID,0.0,VALID,96.551,VALID,0.023,VALID,19.28,VALID,98.0,VALID,1.005,
2017-08-02, 00:34:06,VALID,919.461,VALID,0.0,VALID,96.818,VALID,0.021,VALID,19.318,VALID,93.0,VALID,0.869,
2017-08-02, 00:35:06,VALID,919.439,VALID,0.0,VALID,96.754,VALID,0.017,VALID,19.322,VALID,93.0,VALID,0.809,
2017-08-02, 00:36:06,VALID,919.425,VALID,0.0,VALID,96.622,VALID,0.024,VALID,19.312,VALID,98.0,VALID,0.832,
2017-08-02, 00:37:06,VALID,919.416,VALID,0.0,VALID,96.584,VALID,0.03,VALID,19.308,VALID,98.0,VALID,0.88,
2017-08-02, 00:38:06,VALID,919.416,VALID,0.0,VALID,96.399,VALID,0.027,VALID,19.282,VALID,102.0,VALID,0.914,
2017-08-02, 00:39:06,VALID,919.419,VALID,0.0,VALID,96.534,VALID,0.014,VALID,19.293,VALID,110.0,VALID,0.932,
2017-08-02, 00:40:06,VALID,919.411,VALID,0.0,VALID,96.501,VALID,0.021,VALID,19.277,VALID,115.0,VALID,0.961,
2017-08-02, 00:41:06,VALID,919.392,VALID,0.0,VALID,96.435,VALID,0.016,VALID,19.27,VALID,116.0,VALID,1.057,
2017-08-02, 00:42:06,VALID,919.37,VALID,0.0,VALID,96.442,VALID,0.014,VALID,19.243,VALID,120.0,VALID,1.034,
2017-08-02, 00:43:06,VALID,919.341,VALID,0.0,VALID,96.438,VALID,0.017,VALID,19.227,VALID,120.0,VALID,0.973,
2017-08-02, 00:44:06,VALID,919.322,VALID,0.0,VALID,96.612,VALID,0.019,VALID,19.212,VALID,119.0,VALID,0.69,
2017-08-02, 00:45:06,VALID,919.315,VALID,0.0,VALID,96.266,VALID,0.013,VALID,19.15,VALID,117.0,VALID,0.576,
2017-08-02, 00:46:06,VALID,919.311,VALID,0.0,VALID,96.074,VALID,0.021,VALID,19.113,VALID,112.0,VALID,0.386,
2017-08-02, 00:47:06,VALID,919.307,VALID,0.0,VALID,96.253,VALID,0.024,VALID,19.129,VALID,110.0,VALID,0.363,
2017-08-02, 00:48:06,VALID,919.304,VALID,0.0,VALID,96.367,VALID,0.015,VALID,19.158,VALID,110.0,VALID,0.344,
2017-08-02, 00:49:06,VALID,919.302,VALID,0.0,VALID,96.497,VALID,0.034,VALID,19.213,VALID,109.0,VALID,0.521,
2017-08-02, 00:50:06,VALID,919.288,VALID,0.0,VALID,96.895,VALID,0.027,VALID,19.297,VALID,108.0,VALID,0.519,
2017-08-02, 00:51:06,VALID,919.255,VALID,0.0,VALID,96.921,VALID,0.02,VALID,19.339,VALID,109.0,VALID,0.376,
2017-08-02, 00:52:06,VALID,919.225,VALID,0.0,VALID,96.788,VALID,0.029,VALID,19.365,VALID,111.0,VALID,0.118,
2017-08-02, 00:53:06,VALID,919.188,VALID,0.0,VALID,96.733,VALID,0.029,VALID,19.395,VALID,112.0,VALID,0.02,
2017-08-02, 00:54:06,VALID,919.15,VALID,0.0,VALID,96.798,VALID,0.024,VALID,19.429,VALID,112.0,VALID,0.0,
2017-08-02, 00:55:06,VALID,919.136,VALID,0.0,VALID,96.822,VALID,-0.024,VALID,19.463,VALID,112.0,VALID,0.0,
2017-08-02, 00:56:06,VALID,919.118,VALID,0.0,VALID,96.731,VALID,-0.022,VALID,19.489,VALID,112.0,VALID,0.0,
2017-08-02, 00:57:06,VALID,919.117,VALID,0.0,VALID,96.437,VALID,-0.023,VALID,19.47,VALID,112.0,VALID,0.0,
2017-08-02, 00:58:06,VALID,919.123,VALID,0.0,VALID,96.102,VALID,-0.035,VALID,19.468,VALID,112.0,VALID,0.0,
2017-08-02, 00:59:06,VALID,919.118,VALID,0.0,VALID,96.243,VALID,-0.031,VALID,19.493,VALID,113.0,VALID,0.127,
2017-08-02, 01:00:06,VALID,919.11,VALID,0.0,VALID,96.313,VALID,-0.031,VALID,19.493,VALID,123.0,VALID,0.289,
2017-08-02, 01:01:06,VALID,919.106,VALID,0.0,VALID,96.184,VALID,-0.032,VALID,19.458,VALID,132.0,VALID,0.378,
2017-08-02, 01:02:06,VALID,919.077,VALID,0.0,VALID,95.451,VALID,-0.026,VALID,19.318,VALID,135.0,VALID,0.611,
2017-08-02, 01:03:06,VALID,919.072,VALID,0.0,VALID,95.937,VALID,-0.026,VALID,19.25,VALID,135.0,VALID,0.495,
2017-08-02, 01:04:06,VALID,919.062,VALID,0.0,VALID,95.397,VALID,-0.026,VALID,19.116,VALID,133.0,VALID,0.387,
2017-08-02, 01:05:06,VALID,919.057,VALID,0.0,VALID,95.107,VALID,-0.027,VALID,19.024,VALID,119.0,VALID,0.517,
2017-08-02, 01:06:06,VALID,919.072,VALID,0.0,VALID,95.147,VALID,-0.022,VALID,18.96,VALID,105.0,VALID,0.649,
2017-08-02, 01:07:06,VALID,919.083,VALID,0.0,VALID,95.418,VALID,-0.012,VALID,18.986,VALID,86.0,VALID,1.15,
2017-08-02, 01:08:06,VALID,919.08,VALID,0.0,VALID,96.787,VALID,-0.015,VALID,19.11,VALID,91.0,VALID,1.169,
2017-08-02, 01:09:06,VALID,919.077,VALID,0.0,VALID,97.353,VALID,-0.014,VALID,19.274,VALID,109.0,VALID,1.204,
2017-08-02, 01:10:06,VALID,919.056,VALID,0.0,VALID,97.525,VALID,0.001,VALID,19.334,VALID,114.0,VALID,1.164,
2017-08-02, 01:11:06,VALID,919.041,VALID,0.0,VALID,97.338,VALID,0.002,VALID,19.311,VALID,110.0,VALID,0.923,
2017-08-02, 01:12:06,VALID,919.01,VALID,0.0,VALID,97.285,VALID,0.003,VALID,19.308,VALID,121.0,VALID,0.616,
2017-08-02, 01:13:06,VALID,918.998,VALID,0.0,VALID,97.345,VALID,-0.003,VALID,19.322,VALID,122.0,VALID,0.324,
2017-08-02, 01:14:06,VALID,918.976,VALID,0.0,VALID,97.188,VALID,-0.004,VALID,19.278,VALID,129.0,VALID,0.29,
2017-08-02, 01:15:06,VALID,918.949,VALID,0.0,VALID,97.172,VALID,0.002,VALID,19.261,VALID,129.0,VALID,0.179,
2017-08-02, 01:16:06,VALID,918.914,VALID,0.0,VALID,97.272,VALID,0.007,VALID,19.293,VALID,132.0,VALID,0.361,
2017-08-02, 01:17:06,VALID,918.88,VALID,0.0,VALID,97.495,VALID,-0.009,VALID,19.339,VALID,136.0,VALID,0.275,
2017-08-02, 01:18:06,VALID,918.865,VALID,0.0,VALID,97.495,VALID,-0.017,VALID,19.347,VALID,137.0,VALID,0.033,
2017-08-02, 01:19:06,VALID,918.833,VALID,0.0,VALID,97.416,VALID,0.008,VALID,19.321,VALID,135.0,VALID,0.0,
2017-08-02, 01:20:06,VALID,918.804,VALID,0.0,VALID,97.327,VALID,0.024,VALID,19.321,VALID,135.0,VALID,0.0,
2017-08-02, 01:21:06,VALID,918.795,VALID,0.0,VALID,97.545,VALID,0.002,VALID,19.364,VALID,135.0,VALID,0.0,
2017-08-02, 01:22:06,VALID,918.764,VALID,0.0,VALID,97.391,VALID,0.013,VALID,19.307,VALID,135.0,VALID,0.0,
2017-08-02, 01:23:06,VALID,918.744,VALID,0.0,VALID,97.258,VALID,0.013,VALID,19.259,VALID,137.0,VALID,0.0,
2017-08-02, 01:24:06,VALID,918.707,VALID,0.0,VALID,97.503,VALID,0.011,VALID,19.311,VALID,138.0,VALID,0.174,
2017-08-02, 01:25:06,VALID,918.683,VALID,0.0,VALID,97.515,VALID,-0.02,VALID,19.272,VALID,141.0,VALID,0.539,
2017-08-02, 01:26:06,VALID,918.645,VALID,0.0,VALID,97.398,VALID,-0.025,VALID,19.21,VALID,141.0,VALID,0.585,
2017-08-02, 01:27:06,VALID,918.63,VALID,0.0,VALID,97.405,VALID,-0.026,VALID,19.152,VALID,141.0,VALID,0.629,
2017-08-02, 01:28:06,VALID,918.606,VALID,0.0,VALID,97.019,VALID,-0.039,VALID,19.014,VALID,138.0,VALID,0.546,
2017-08-02, 01:29:06,VALID,918.574,VALID,0.0,VALID,97.02,VALID,-0.043,VALID,18.974,VALID,126.0,VALID,0.591,
2017-08-02, 01:30:06,VALID,918.544,VALID,0.0,VALID,97.015,VALID,-0.03,VALID,18.956,VALID,145.0,VALID,0.634,
2017-08-02, 01:31:06,VALID,918.512,VALID,0.0,VALID,97.044,VALID,-0.045,VALID,18.947,VALID,137.0,VALID,0.515,
2017-08-02, 01:32:06,VALID,918.477,VALID,0.0,VALID,96.97,VALID,-0.03,VALID,18.927,VALID,136.0,VALID,0.505,
2017-08-02, 01:33:06,VALID,918.449,VALID,0.0,VALID,97.051,VALID,-0.039,VALID,18.934,VALID,116.0,VALID,0.516,
2017-08-02, 01:34:06,VALID,918.434,VALID,0.0,VALID,97.048,VALID,-0.027,VALID,18.954,VALID,114.0,VALID,0.703,
2017-08-02, 01:35:06,VALID,918.432,VALID,0.0,VALID,97.249,VALID,-0.023,VALID,19.003,VALID,108.0,VALID,0.768,
2017-08-02, 01:36:06,VALID,918.435,VALID,0.0,VALID,96.949,VALID,-0.015,VALID,18.969,VALID,99.0,VALID,0.857,
2017-08-02, 01:37:06,VALID,918.433,VALID,0.0,VALID,96.956,VALID,-0.048,VALID,18.985,VALID,91.0,VALID,0.894,
2017-08-02, 01:38:06,VALID,918.447,VALID,0.0,VALID,96.984,VALID,-0.029,VALID,18.994,VALID,89.0,VALID,1.088,
2017-08-02, 01:39:06,VALID,918.469,VALID,0.0,VALID,96.848,VALID,-0.035,VALID,18.977,VALID,92.0,VALID,1.175,
2017-08-02, 01:40:06,VALID,918.484,VALID,0.0,VALID,96.721,VALID,-0.007,VALID,18.964,VALID,98.0,VALID,1.259,
2017-08-02, 01:41:06,VALID,918.499,VALID,0.0,VALID,96.616,VALID,-0.004,VALID,18.982,VALID,103.0,VALID,1.733,
2017-08-02, 01:42:06,VALID,918.514,VALID,0.0,VALID,96.15,VALID,0.003,VALID,18.964,VALID,113.0,VALID,1.659,
2017-08-02, 01:43:06,VALID,918.52,VALID,0.0,VALID,95.938,VALID,-0.008,VALID,18.936,VALID,123.0,VALID,1.58,
2017-08-02, 01:44:06,VALID,918.518,VALID,0.0,VALID,96.242,VALID,-0.016,VALID,18.933,VALID,125.0,VALID,1.716,
2017-08-02, 01:45:06,VALID,918.507,VALID,0.0,VALID,96.635,VALID,-0.011,VALID,18.937,VALID,125.0,VALID,1.333,
2017-08-02, 01:46:06,VALID,918.484,VALID,0.0,VALID,96.619,VALID,-0.01,VALID,18.913,VALID,132.0,VALID,1.008,
2017-08-02, 01:47:06,VALID,918.46,VALID,0.0,VALID,97.043,VALID,-0.003,VALID,18.954,VALID,129.0,VALID,0.997,
2017-08-02, 01:48:06,VALID,918.437,VALID,0.0,VALID,97.355,VALID,-0.008,VALID,18.993,VALID,134.0,VALID,1.023,
2017-08-02, 01:49:06,VALID,918.437,VALID,0.0,VALID,97.507,VALID,-0.014,VALID,19.009,VALID,137.0,VALID,1.045,
2017-08-02, 01:50:06,VALID,918.427,VALID,0.0,VALID,97.525,VALID,0.001,VALID,18.994,VALID,129.0,VALID,1.051,
2017-08-02, 01:51:06,VALID,918.444,VALID,0.0,VALID,97.499,VALID,-0.01,VALID,18.978,VALID,132.0,VALID,1.028,
2017-08-02, 01:52:06,VALID,918.454,VALID,0.0,VALID,97.476,VALID,-0.019,VALID,18.956,VALID,135.0,VALID,1.163,
2017-08-02, 01:53:06,VALID,918.459,VALID,0.0,VALID,97.43,VALID,-0.016,VALID,18.947,VALID,132.0,VALID,1.389,
2017-08-02, 01:54:06,VALID,918.445,VALID,0.0,VALID,97.551,VALID,-0.025,VALID,18.98,VALID,138.0,VALID,1.266,
2017-08-02, 01:55:06,VALID,918.431,VALID,0.0,VALID,97.473,VALID,0.004,VALID,18.985,VALID,148.0,VALID,1.433,
2017-08-02, 01:56:06,VALID,918.412,VALID,0.0,VALID,97.579,VALID,-0.001,VALID,19.043,VALID,147.0,VALID,1.236,
2017-08-02, 01:57:06,VALID,918.399,VALID,0.0,VALID,97.531,VALID,-0.013,VALID,19.069,VALID,152.0,VALID,1.337,
2017-08-02, 01:58:06,VALID,918.361,VALID,0.0,VALID,97.385,VALID,-0.01,VALID,19.098,VALID,143.0,VALID,1.228,
2017-08-02, 01:59:06,VALID,918.353,VALID,0.0,VALID,97.131,VALID,0.018,VALID,19.105,VALID,135.0,VALID,0.992,
2017-08-02, 02:00:06,VALID,918.329,VALID,0.0,VALID,96.866,VALID,0.013,VALID,19.103,VALID,133.0,VALID,0.938,
2017-08-02, 02:01:06,VALID,918.302,VALID,0.0,VALID,96.573,VALID,0.006,VALID,19.077,VALID,110.0,VALID,0.738,
2017-08-02, 02:02:06,VALID,918.26,VALID,0.0,VALID,96.265,VALID,-0.004,VALID,19.072,VALID,118.0,VALID,0.823,
2017-08-02, 02:03:06,VALID,918.23,VALID,0.0,VALID,96.17,VALID,0.0,VALID,19.119,VALID,131.0,VALID,0.289,
2017-08-02, 02:04:06,VALID,918.206,VALID,0.0,VALID,96.038,VALID,0.012,VALID,19.153,VALID,134.0,VALID,0.421,
2017-08-02, 02:05:06,VALID,918.185,VALID,0.0,VALID,95.722,VALID,0.009,VALID,19.151,VALID,133.0,VALID,0.401,
2017-08-02, 02:06:06,VALID,918.17,VALID,0.0,VALID,95.375,VALID,-0.002,VALID,19.14,VALID,134.0,VALID,0.547,
2017-08-02, 02:07:06,VALID,918.169,VALID,0.0,VALID,95.247,VALID,-0.006,VALID,19.141,VALID,133.0,VALID,0.675,
2017-08-02, 02:08:06,VALID,918.168,VALID,0.0,VALID,95.188,VALID,-0.012,VALID,19.139,VALID,125.0,VALID,1.006,
2017-08-02, 02:09:06,VALID,918.172,VALID,0.0,VALID,95.023,VALID,0.002,VALID,19.166,VALID,117.0,VALID,1.129,
2017-08-02, 02:10:06,VALID,918.166,VALID,0.0,VALID,94.614,VALID,-0.001,VALID,19.174,VALID,116.0,VALID,1.32,
2017-08-02, 02:11:06,VALID,918.159,VALID,0.0,VALID,94.252,VALID,-0.004,VALID,19.214,VALID,109.0,VALID,1.048,
2017-08-02, 02:12:06,VALID,918.133,VALID,0.0,VALID,93.814,VALID,-0.019,VALID,19.237,VALID,105.0,VALID,1.005,
2017-08-02, 02:13:06,VALID,918.112,VALID,0.0,VALID,93.595,VALID,-0.007,VALID,19.247,VALID,114.0,VALID,0.955,
2017-08-02, 02:14:06,VALID,918.095,VALID,0.0,VALID,93.545,VALID,-0.012,VALID,19.264,VALID,126.0,VALID,0.778,
2017-08-02, 02:15:06,VALID,918.062,VALID,0.0,VALID,93.552,VALID,-0.023,VALID,19.258,VALID,127.0,VALID,0.796,
2017-08-02, 02:16:06,VALID,918.033,VALID,0.0,VALID,93.591,VALID,-0.021,VALID,19.243,VALID,125.0,VALID,0.803,
2017-08-02, 02:17:06,VALID,918.027,VALID,0.0,VALID,93.651,VALID,-0.01,VALID,19.217,VALID,120.0,VALID,0.892,
2017-08-02, 02:18:06,VALID,918.011,VALID,0.0,VALID,93.775,VALID,-0.019,VALID,19.203,VALID,121.0,VALID,0.971,
2017-08-02, 02:19:06,VALID,917.996,VALID,0.0,VALID,93.836,VALID,-0.017,VALID,19.219,VALID,134.0,VALID,1.048,
2017-08-02, 02:20:06,VALID,917.971,VALID,0.0,VALID,93.731,VALID,-0.019,VALID,19.253,VALID,140.0,VALID,1.107,
2017-08-02, 02:21:06,VALID,917.954,VALID,0.0,VALID,93.569,VALID,-0.026,VALID,19.283,VALID,136.0,VALID,1.031,
2017-08-02, 02:22:06,VALID,917.933,VALID,0.0,VALID,93.429,VALID,-0.024,VALID,19.273,VALID,128.0,VALID,1.116,
2017-08-02, 02:23:06,VALID,917.912,VALID,0.0,VALID,93.374,VALID,-0.016,VALID,19.261,VALID,129.0,VALID,1.226,
2017-08-02, 02:24:06,VALID,917.889,VALID,0.0,VALID,93.288,VALID,-0.022,VALID,19.261,VALID,129.0,VALID,1.179,
2017-08-02, 02:25:06,VALID,917.878,VALID,0.0,VALID,93.268,VALID,0.027,VALID,19.262,VALID,136.0,VALID,1.064,
2017-08-02, 02:26:06,VALID,917.859,VALID,0.0,VALID,93.242,VALID,0.03,VALID,19.273,VALID,137.0,VALID,1.065,
2017-08-02, 02:27:06,VALID,917.852,VALID,0.0,VALID,93.084,VALID,0.014,VALID,19.299,VALID,135.0,VALID,1.078,
2017-08-02, 02:28:06,VALID,917.839,VALID,0.0,VALID,92.947,VALID,-0.002,VALID,19.34,VALID,134.0,VALID,0.863,
2017-08-02, 02:29:06,VALID,917.818,VALID,0.0,VALID,92.81,VALID,0.017,VALID,19.378,VALID,129.0,VALID,0.918,
2017-08-02, 02:30:06,VALID,917.797,VALID,0.0,VALID,92.68,VALID,0.009,VALID,19.403,VALID,119.0,VALID,0.788,
2017-08-02, 02:31:06,VALID,917.774,VALID,0.0,VALID,92.668,VALID,0.013,VALID,19.422,VALID,108.0,VALID,0.885,
2017-08-02, 02:32:06,VALID,917.765,VALID,0.0,VALID,92.62,VALID,0.022,VALID,19.431,VALID,110.0,VALID,1.105,
2017-08-02, 02:33:06,VALID,917.763,VALID,0.0,VALID,92.6,VALID,0.031,VALID,19.417,VALID,104.0,VALID,1.165,
2017-08-02, 02:34:06,VALID,917.742,VALID,0.0,VALID,92.532,VALID,0.023,VALID,19.389,VALID,107.0,VALID,1.255,
2017-08-02, 02:35:06,VALID,917.737,VALID,0.0,VALID,92.739,VALID,0.029,VALID,19.356,VALID,112.0,VALID,1.297,
2017-08-02, 02:36:06,VALID,917.717,VALID,0.0,VALID,92.969,VALID,0.012,VALID,19.307,VALID,115.0,VALID,1.316,
2017-08-02, 02:37:06,VALID,917.697,VALID,0.0,VALID,93.255,VALID,0.019,VALID,19.257,VALID,126.0,VALID,1.015,
2017-08-02, 02:38:06,VALID,917.67,VALID,0.0,VALID,93.527,VALID,0.031,VALID,19.229,VALID,128.0,VALID,0.856,
2017-08-02, 02:39:06,VALID,917.654,VALID,0.0,VALID,93.746,VALID,-0.005,VALID,19.233,VALID,126.0,VALID,0.802,
2017-08-02, 02:40:06,VALID,917.641,VALID,0.0,VALID,93.862,VALID,0.005,VALID,19.241,VALID,130.0,VALID,0.709,
2017-08-02, 02:41:06,VALID,917.633,VALID,0.0,VALID,93.879,VALID,0.014,VALID,19.237,VALID,126.0,VALID,0.724,
2017-08-02, 02:42:06,VALID,917.631,VALID,0.0,VALID,93.901,VALID,0.002,VALID,19.243,VALID,129.0,VALID,0.708,
2017-08-02, 02:43:06,VALID,917.63,VALID,0.0,VALID,93.822,VALID,0.013,VALID,19.269,VALID,131.0,VALID,0.658,
2017-08-02, 02:44:06,VALID,917.623,VALID,0.0,VALID,93.697,VALID,0.015,VALID,19.316,VALID,135.0,VALID,0.352,
2017-08-02, 02:45:06,VALID,917.618,VALID,0.0,VALID,93.586,VALID,0.001,VALID,19.336,VALID,133.0,VALID,0.417,
2017-08-02, 02:46:06,VALID,917.615,VALID,0.0,VALID,93.571,VALID,0.008,VALID,19.357,VALID,124.0,VALID,0.194,
2017-08-02, 02:47:06,VALID,917.603,VALID,0.0,VALID,93.543,VALID,0.003,VALID,19.362,VALID,127.0,VALID,0.368,
2017-08-02, 02:48:06,VALID,917.595,VALID,0.0,VALID,93.49,VALID,0.01,VALID,19.353,VALID,136.0,VALID,0.368,
2017-08-02, 02:49:06,VALID,917.586,VALID,0.0,VALID,93.26,VALID,0.016,VALID,19.354,VALID,147.0,VALID,0.543,
2017-08-02, 02:50:06,VALID,917.57,VALID,0.0,VALID,93.074,VALID,-0.001,VALID,19.373,VALID,146.0,VALID,0.537,
2017-08-02, 02:51:06,VALID,917.547,VALID,0.0,VALID,93.048,VALID,0.016,VALID,19.397,VALID,162.0,VALID,0.287,
2017-08-02, 02:52:06,VALID,917.545,VALID,0.0,VALID,93.007,VALID,0.006,VALID,19.41,VALID,145.0,VALID,0.076,
2017-08-02, 02:53:06,VALID,917.539,VALID,0.0,VALID,93.005,VALID,0.013,VALID,19.422,VALID,136.0,VALID,0.0,
2017-08-02, 02:54:06,VALID,917.547,VALID,0.0,VALID,93.048,VALID,0.016,VALID,19.444,VALID,136.0,VALID,0.0,
2017-08-02, 02:55:06,VALID,917.553,VALID,0.0,VALID,93.012,VALID,-0.005,VALID,19.457,VALID,136.0,VALID,0.0,
2017-08-02, 02:56:06,VALID,917.546,VALID,0.0,VALID,93.03,VALID,-0.011,VALID,19.43,VALID,136.0,VALID,0.0,
2017-08-02, 02:57:06,VALID,917.548,VALID,0.0,VALID,93.133,VALID,-0.014,VALID,19.406,VALID,136.0,VALID,0.0,
2017-08-02, 02:58:06,VALID,917.539,VALID,0.0,VALID,93.125,VALID,-0.017,VALID,19.393,VALID,136.0,VALID,0.0,
2017-08-02, 02:59:06,VALID,917.528,VALID,0.0,VALID,93.109,VALID,-0.018,VALID,19.394,VALID,196.0,VALID,0.109,
2017-08-02, 03:00:06,VALID,917.513,VALID,0.0,VALID,93.126,VALID,-0.005,VALID,19.396,VALID,297.0,VALID,0.095,
2017-08-02, 03:01:06,VALID,917.485,VALID,0.0,VALID,93.037,VALID,-0.011,VALID,19.408,VALID,297.0,VALID,0.0,
2017-08-02, 03:02:06,VALID,917.468,VALID,0.0,VALID,92.785,VALID,-0.019,VALID,19.435,VALID,297.0,VALID,0.0,
2017-08-02, 03:03:06,VALID,917.469,VALID,0.0,VALID,92.486,VALID,-0.012,VALID,19.46,VALID,297.0,VALID,0.0,
2017-08-02, 03:04:06,VALID,917.478,VALID,0.0,VALID,92.761,VALID,-0.004,VALID,19.484,VALID,297.0,VALID,0.0,
2017-08-02, 03:05:06,VALID,917.486,VALID,0.0,VALID,92.807,VALID,-0.007,VALID,19.463,VALID,297.0,VALID,0.0,
2017-08-02, 03:06:06,VALID,917.496,VALID,0.0,VALID,92.682,VALID,-0.019,VALID,19.39,VALID,297.0,VALID,0.0,
2017-08-02, 03:07:06,VALID,917.51,VALID,0.0,VALID,92.965,VALID,-0.014,VALID,19.28,VALID,297.0,VALID,0.0,
2017-08-02, 03:08:06,VALID,917.527,VALID,0.0,VALID,93.481,VALID,-0.006,VALID,19.177,VALID,297.0,VALID,0.102,
2017-08-02, 03:09:06,VALID,917.52,VALID,0.0,VALID,93.601,VALID,-0.019,VALID,19.068,VALID,304.0,VALID,0.431,
2017-08-02, 03:10:06,VALID,917.516,VALID,0.0,VALID,93.958,VALID,-0.009,VALID,18.998,VALID,107.0,VALID,0.602,
2017-08-02, 03:11:06,VALID,917.509,VALID,0.0,VALID,94.319,VALID,-0.012,VALID,18.977,VALID,104.0,VALID,0.649,
2017-08-02, 03:12:06,VALID,917.503,VALID,0.0,VALID,94.612,VALID,-0.006,VALID,19.01,VALID,105.0,VALID,0.738,
2017-08-02, 03:13:06,VALID,917.49,VALID,0.0,VALID,94.429,VALID,-0.012,VALID,19.099,VALID,116.0,VALID,0.888,
2017-08-02, 03:14:06,VALID,917.482,VALID,0.0,VALID,93.835,VALID,-0.012,VALID,19.201,VALID,112.0,VALID,0.786,
2017-08-02, 03:15:06,VALID,917.487,VALID,0.0,VALID,93.222,VALID,-0.015,VALID,19.248,VALID,103.0,VALID,0.758,
2017-08-02, 03:16:06,VALID,917.484,VALID,0.0,VALID,92.726,VALID,-0.02,VALID,19.248,VALID,95.0,VALID,0.67,
2017-08-02, 03:17:06,VALID,917.485,VALID,0.0,VALID,92.834,VALID,-0.023,VALID,19.254,VALID,92.0,VALID,0.652,
2017-08-02, 03:18:06,VALID,917.483,VALID,0.0,VALID,92.877,VALID,-0.007,VALID,19.252,VALID,92.0,VALID,0.601,
2017-08-02, 03:19:06,VALID,917.497,VALID,0.0,VALID,93.023,VALID,-0.011,VALID,19.269,VALID,98.0,VALID,0.617,
2017-08-02, 03:20:06,VALID,917.507,VALID,0.0,VALID,92.943,VALID,-0.024,VALID,19.309,VALID,109.0,VALID,0.614,
2017-08-02, 03:21:06,VALID,917.496,VALID,0.0,VALID,92.78,VALID,-0.014,VALID,19.325,VALID,123.0,VALID,0.702,
2017-08-02, 03:22:06,VALID,917.502,VALID,0.0,VALID,92.744,VALID,-0.013,VALID,19.318,VALID,122.0,VALID,0.677,
2017-08-02, 03:23:06,VALID,917.509,VALID,0.0,VALID,92.826,VALID,-0.004,VALID,19.312,VALID,111.0,VALID,0.538,
2017-08-02, 03:24:06,VALID,917.499,VALID,0.0,VALID,92.886,VALID,-0.0,VALID,19.299,VALID,108.0,VALID,0.572,
2017-08-02, 03:25:06,VALID,917.502,VALID,0.0,VALID,93.011,VALID,0.003,VALID,19.283,VALID,113.0,VALID,0.675,
2017-08-02, 03:26:06,VALID,917.498,VALID,0.0,VALID,93.104,VALID,0.014,VALID,19.292,VALID,116.0,VALID,0.703,
2017-08-02, 03:27:06,VALID,917.499,VALID,0.0,VALID,93.014,VALID,0.014,VALID,19.316,VALID,110.0,VALID,0.748,
2017-08-02, 03:28:06,VALID,917.493,VALID,0.0,VALID,92.955,VALID,0.022,VALID,19.321,VALID,109.0,VALID,0.75,
2017-08-02, 03:29:06,VALID,917.518,VALID,0.0,VALID,93.048,VALID,0.023,VALID,19.317,VALID,111.0,VALID,0.832,
2017-08-02, 03:30:06,VALID,917.526,VALID,0.0,VALID,93.125,VALID,0.015,VALID,19.306,VALID,107.0,VALID,0.942,
2017-08-02, 03:31:06,VALID,917.553,VALID,0.0,VALID,93.268,VALID,-0.006,VALID,19.303,VALID,100.0,VALID,1.118,
2017-08-02, 03:32:06,VALID,917.568,VALID,0.0,VALID,93.355,VALID,0.003,VALID,19.31,VALID,92.0,VALID,1.139,
2017-08-02, 03:33:06,VALID,917.575,VALID,0.0,VALID,93.31,VALID,-0.018,VALID,19.356,VALID,88.0,VALID,1.279,
2017-08-02, 03:34:06,VALID,917.584,VALID,0.0,VALID,93.21,VALID,0.014,VALID,19.376,VALID,90.0,VALID,1.476,
2017-08-02, 03:35:06,VALID,917.599,VALID,0.0,VALID,92.988,VALID,0.005,VALID,19.442,VALID,87.0,VALID,1.704,
2017-08-02, 03:36:06,VALID,917.614,VALID,0.0,VALID,92.533,VALID,-0.003,VALID,19.519,VALID,88.0,VALID,1.478,
2017-08-02, 03:37:06,VALID,917.636,VALID,0.0,VALID,92.355,VALID,0.015,VALID,19.521,VALID,90.0,VALID,1.185,
2017-08-02, 03:38:06,VALID,917.647,VALID,0.0,VALID,92.412,VALID,0.008,VALID,19.522,VALID,95.0,VALID,1.054,